Location: Vsetin
(49.3330°N, 18.0000°E)
Time: 21:21:40
(UTC+01:00)

ISS - Visible Passes

Search period start: 25 March 2023 00:00
Search period end: 04 April 2023 01:00
Orbit: 414 x 422 km, 51.6° (Epoch: 25 March)

Date Brightness Start Highest point End Pass type
(mag) Time Alt. Az. Time Alt. Az. Time Alt. Az.
25 Mar -3.4 19:31:52 10° WNW 19:35:11 58° N 19:36:44 28° ENE visible
25 Mar -1.0 21:08:42 10° WNW 21:09:40 18° WNW 21:09:40 18° WNW visible
26 Mar -3.3 19:43:49 10° WNW 19:47:08 55° N 19:50:26 10° E visible
26 Mar -3.4 21:20:41 10° WNW 21:23:36 63° W 21:23:36 63° W visible
27 Mar -3.8 20:32:39 10° WNW 20:36:00 79° NNE 20:37:29 30° E visible
27 Mar -0.9 22:09:38 10° W 22:10:25 15° W 22:10:25 15° W visible
28 Mar -3.5 19:44:32 10° WNW 19:47:53 65° N 19:51:12 10° E visible
28 Mar -2.9 21:21:24 10° WNW 21:24:16 40° SW 21:24:16 40° SW visible
29 Mar -3.5 20:33:11 10° WNW 20:36:30 60° SSW 20:38:07 27° SE visible
30 Mar -3.7 19:44:58 10° WNW 19:48:20 83° SSW 19:51:41 10° ESE visible
30 Mar -1.8 21:22:12 10° W 21:24:44 20° SW 21:24:52 20° SW visible
31 Mar -2.3 20:33:41 10° W 20:36:39 29° SW 20:38:43 16° SSE visible
02 Apr -1.1 20:34:34 10° WSW 20:36:23 14° SW 20:38:12 10° S visible
